When you browse on this site, cookies collect data to enhance your experience and personalize the content and advertising you see.
Visit our Privacy Policy to learn more. By continuing to use the site, you agree to this use of cookies and data.
  • En España
  • Lista de países
  • Para 7 días
  • Temperatura del agua
  • El tiempo en el mapa
  • Informadores
  • user-avatar
    Iniciar sesión

    Tiempo cada hora Aleksandria

    Hoy, 20 Febrero, Jueves

    Tiempo Temperatura Precipitaciones Viento Presión Humedad
    00:00 +14°C° 0 mm 3 mps 764 mmHg 74%
    01:00 +13°C° 0 mm 3 mps 764 mmHg 74%
    02:00 +13°C° 0 mm 3 mps 764 mmHg 73%
    03:00 +13°C° 0 mm 3 mps 764 mmHg 73%
    04:00 +13°C° 0 mm 3 mps 764 mmHg 73%
    05:00 +13°C° 0 mm 3 mps 764 mmHg 73%
    06:00 +13°C° 0 mm 4 mps 764 mmHg 71%
    07:00 +13°C° 0 mm 4 mps 765 mmHg 70%
    08:00 +14°C° 0 mm 4 mps 765 mmHg 68%
    09:00 +15°C° 0 mm 4 mps 765 mmHg 64%
    10:00 +15°C° 0 mm 4 mps 765 mmHg 60%
    11:00 +16°C° 0 mm 5 mps 765 mmHg 55%
    12:00 +17°C° 0 mm 5 mps 764 mmHg 54%
    13:00 +17°C° 0 mm 5 mps 763 mmHg 52%
    14:00 +19°C° 0 mm 5 mps 763 mmHg 50%
    15:00 +17°C° 0 mm 5 mps 763 mmHg 51%
    16:00 +18°C° 0 mm 4 mps 763 mmHg 51%
    17:00 +18°C° 0 mm 4 mps 762 mmHg 52%
    18:00 +17°C° 0 mm 3 mps 762 mmHg 55%
    19:00 +16°C° 0 mm 2 mps 762 mmHg 58%
    20:00 +15°C° 0 mm 1 mps 762 mmHg 60%
    21:00 +15°C° 0 mm 1 mps 762 mmHg 62%
    22:00 +14°C° 0 mm 2 mps 763 mmHg 63%
    23:00 +14°C° 0 mm 2 mps 763 mmHg 64%

    Mañana, 21 Febrero, Viernes

    Tiempo Temperatura Precipitaciones Viento Presión Humedad
    00:00 +14°C° 0 mm 2 mps 762 mmHg 67%
    01:00 +14°C° 0 mm 2 mps 762 mmHg 71%
    02:00 +14°C° 0 mm 2 mps 761 mmHg 75%
    03:00 +13°C° 0 mm 3 mps 761 mmHg 77%
    04:00 +13°C° 0 mm 4 mps 761 mmHg 78%
    05:00 +13°C° 0 mm 4 mps 761 mmHg 80%
    06:00 +13°C° 0 mm 5 mps 761 mmHg 75%
    07:00 +14°C° 0 mm 6 mps 761 mmHg 71%
    08:00 +14°C° 0 mm 7 mps 761 mmHg 67%
    15:00 +16°C° 0 mm 10 mps 759 mmHg 55%
    16:00 +16°C° 0 mm 10 mps 760 mmHg 55%
    17:00 +16°C° 0 mm 10 mps 760 mmHg 56%
    18:00 +15°C° 0.3 mm 9 mps 760 mmHg 61%
    19:00 +15°C° 0.3 mm 8 mps 761 mmHg 66%
    20:00 +14°C° 0.3 mm 7 mps 761 mmHg 71%
    21:00 +14°C° 0.1 mm 7 mps 761 mmHg 70%
    22:00 +14°C° 0.1 mm 7 mps 762 mmHg 69%
    23:00 +14°C° 0.1 mm 7 mps 762 mmHg 69%

    Pasado mañana, 22 Febrero, Sábado

    Tiempo Temperatura Precipitaciones Viento Presión Humedad
    00:00 +14°C° 0 mm 7 mps 762 mmHg 69%
    01:00 +14°C° 0 mm 7 mps 762 mmHg 69%
    02:00 +12°C° 0 mm 7 mps 762 mmHg 68%
    03:00 +12°C° 0.1 mm 7 mps 762 mmHg 68%
    04:00 +12°C° 0.1 mm 7 mps 762 mmHg 68%
    05:00 +12°C° 0.1 mm 7 mps 762 mmHg 68%
    06:00 +14°C° 0.1 mm 7 mps 762 mmHg 67%
    07:00 +14°C° 0.1 mm 7 mps 762 mmHg 66%
    08:00 +14°C° 0.1 mm 7 mps 763 mmHg 65%
    09:00 +15°C° 0.1 mm 7 mps 763 mmHg 61%
    10:00 +16°C° 0.1 mm 8 mps 763 mmHg 58%
    11:00 +16°C° 0.1 mm 8 mps 763 mmHg 55%
    12:00 +16°C° 0 mm 8 mps 763 mmHg 54%
    13:00 +16°C° 0 mm 8 mps 763 mmHg 54%
    14:00 +16°C° 0 mm 9 mps 763 mmHg 53%
    15:00 +16°C° 0 mm 8 mps 763 mmHg 54%
    16:00 +15°C° 0 mm 8 mps 763 mmHg 55%
    17:00 +15°C° 0 mm 8 mps 763 mmHg 56%
    18:00 +15°C° 0 mm 8 mps 763 mmHg 57%
    19:00 +14°C° 0 mm 7 mps 764 mmHg 58%
    20:00 +14°C° 0 mm 7 mps 764 mmHg 59%
    21:00 +14°C° 0 mm 7 mps 764 mmHg 60%
    22:00 +13°C° 0 mm 6 mps 764 mmHg 60%
    23:00 +13°C° 0 mm 6 mps 764 mmHg 61%

    23 Febrero, Domingo

    Tiempo Temperatura Precipitaciones Viento Presión Humedad
    00:00 +13°C° 0.1 mm 5 mps 764 mmHg 62%
    01:00 +13°C° 0.1 mm 5 mps 764 mmHg 63%
    02:00 +13°C° 0.1 mm 4 mps 763 mmHg 65%
    03:00 +13°C° 0.2 mm 4 mps 763 mmHg 67%
    04:00 +13°C° 0.2 mm 4 mps 763 mmHg 69%
    05:00 +12°C° 0.2 mm 4 mps 762 mmHg 71%
    06:00 +12°C° 0.6 mm 4 mps 763 mmHg 72%
    07:00 +12°C° 0.6 mm 4 mps 763 mmHg 72%
    08:00 +12°C° 0.6 mm 4 mps 763 mmHg 72%
    09:00 +12°C° 1.1 mm 4 mps 763 mmHg 74%
    10:00 +12°C° 1.1 mm 4 mps 763 mmHg 75%
    11:00 +12°C° 1.1 mm 4 mps 763 mmHg 77%
    12:00 +13°C° 1.5 mm 4 mps 763 mmHg 75%
    13:00 +13°C° 1.5 mm 5 mps 762 mmHg 73%
    14:00 +13°C° 1.5 mm 5 mps 762 mmHg 72%
    15:00 +13°C° 0.9 mm 5 mps 762 mmHg 72%
    16:00 +12°C° 0.9 mm 4 mps 762 mmHg 72%
    17:00 +12°C° 0.9 mm 3 mps 762 mmHg 72%
    18:00 +11°C° 0.3 mm 3 mps 762 mmHg 74%
    19:00 +12°C° 0.3 mm 2 mps 762 mmHg 77%
    20:00 +12°C° 0.3 mm 1 mps 763 mmHg 79%
    21:00 +11°C° 0 mm 1 mps 763 mmHg 79%
    22:00 +11°C° 0 mm 1 mps 763 mmHg 78%
    23:00 +10°C° 0 mm 2 mps 763 mmHg 78%

    24 Febrero, Lunes

    Tiempo Temperatura Precipitaciones Viento Presión Humedad
    00:00 +10°C° 0.4 mm 3 mps 763 mmHg 78%
    01:00 +11°C° 0.4 mm 3 mps 762 mmHg 77%
    02:00 +11°C° 0.4 mm 4 mps 762 mmHg 77%
    03:00 +10°C° 0.2 mm 5 mps 762 mmHg 76%
    04:00 +12°C° 0.2 mm 5 mps 762 mmHg 74%
    05:00 +12°C° 0.2 mm 5 mps 762 mmHg 72%
    06:00 +13°C° 0 mm 5 mps 762 mmHg 71%
    07:00 +13°C° 0 mm 6 mps 762 mmHg 69%
    08:00 +14°C° 0 mm 6 mps 762 mmHg 68%
    09:00 +14°C° 0.3 mm 6 mps 763 mmHg 69%
    10:00 +14°C° 0.3 mm 7 mps 763 mmHg 71%
    11:00 +13°C° 0.3 mm 8 mps 763 mmHg 73%
    12:00 +15°C° 0.6 mm 8 mps 763 mmHg 71%
    13:00 +15°C° 0.6 mm 8 mps 763 mmHg 69%
    14:00 +16°C° 0.6 mm 9 mps 762 mmHg 67%
    15:00 +16°C° 0.1 mm 8 mps 762 mmHg 67%
    16:00 +16°C° 0.1 mm 8 mps 763 mmHg 68%
    17:00 +16°C° 0.1 mm 7 mps 763 mmHg 68%
    18:00 +15°C° 0 mm 7 mps 763 mmHg 70%
    19:00 +15°C° 0 mm 7 mps 764 mmHg 73%
    20:00 +14°C° 0 mm 6 mps 764 mmHg 76%
    21:00 +14°C° 0 mm 6 mps 764 mmHg 76%
    22:00 +14°C° 0 mm 6 mps 764 mmHg 76%
    23:00 +13°C° 0 mm 6 mps 764 mmHg 76%

    25 Febrero, Martes

    Tiempo Temperatura Precipitaciones Viento Presión Humedad
    00:00 +13°C° 0 mm 6 mps 764 mmHg 78%
    01:00 +13°C° 0 mm 6 mps 764 mmHg 79%
    02:00 +13°C° 0 mm 6 mps 764 mmHg 80%
    03:00 +14°C° 0 mm 6 mps 764 mmHg 82%
    04:00 +14°C° 0 mm 6 mps 764 mmHg 85%
    05:00 +14°C° 0 mm 7 mps 764 mmHg 87%
    06:00 +14°C° 0 mm 7 mps 764 mmHg 85%
    07:00 +15°C° 0 mm 7 mps 764 mmHg 83%
    08:00 +15°C° 0 mm 7 mps 764 mmHg 81%
    09:00 +16°C° 0 mm 7 mps 764 mmHg 78%
    10:00 +17°C° 0 mm 7 mps 764 mmHg 74%
    11:00 +17°C° 0 mm 7 mps 764 mmHg 70%
    12:00 +18°C° 0 mm 7 mps 764 mmHg 69%
    13:00 +18°C° 0 mm 7 mps 763 mmHg 68%
    14:00 +18°C° 0 mm 7 mps 763 mmHg 67%
    15:00 +19°C° 0 mm 6 mps 763 mmHg 69%
    16:00 +17°C° 0 mm 6 mps 763 mmHg 71%
    17:00 +17°C° 0 mm 5 mps 763 mmHg 73%
    18:00 +16°C° 0 mm 5 mps 763 mmHg 77%
    19:00 +17°C° 0 mm 4 mps 764 mmHg 81%
    20:00 +15°C° 0 mm 4 mps 764 mmHg 85%
    21:00 +15°C° 0 mm 4 mps 764 mmHg 86%
    22:00 +16°C° 0 mm 3 mps 764 mmHg 87%
    23:00 +16°C° 0 mm 3 mps 764 mmHg 88%
    Mostrar más